GFSNGP_500_rhum_114.txt.gz
RH
13 13 13 12 9 16 26 49 69 73 90 82 76 87 100 99 91 100 81 72 69 68 77 89 74 78 95 87 94 99 99 95 99 98 98 100 99 96 95 91 90 91 96 96
12 12 14 14 13 10 16 27 32 48 58 60 58 58 48 71 89 96 98 100 74 70 82 88 91 86 81 86 81 84 89 94 99 99 96 95 95 96 93 95 96 95 92 93
11 12 13 15 15 14 10 9 14 42 50 60 65 61 56 59 61 68 81 92 94 97 87 92 99 96 85 87 84 78 85 94 95 93 95 96 91 90 88 91 97 94 92 91
12 12 14 16 17 17 15 12 10 10 17 32 43 42 50 44 50 65 77 87 98 99 97 100 100 93 90 100 93 88 91 88 89 91 95 91 82 85 83 84 90 92 93 82
14 12 14 16 16 17 18 15 13 11 9 9 18 45 51 59 52 48 59 71 84 99 100 99 99 100 100 97 95 95 97 98 99 96 97 92 92 85 88 93 90 88 79 74
13 13 14 15 15 16 18 18 14 13 11 10 10 13 48 66 66 60 53 57 77 74 79 94 100 95 88 88 91 91 88 94 99 98 100 95 92 93 96 96 98 97 98 94
13 15 13 15 17 16 18 21 17 13 11 11 10 11 16 46 68 70 70 66 78 98 93 85 85 88 93 90 85 83 84 88 92 88 88 82 78 78 83 87 90 94 92 89
14 15 14 15 18 19 20 22 23 17 14 11 10 8 8 15 36 64 73 82 72 69 66 80 80 80 73 68 58 57 69 75 78 85 79 82 87 96 99 95 96 92 81 71
14 15 14 15 16 18 20 22 23 20 17 14 11 10 8 7 9 16 43 64 67 77 72 72 72 63 63 49 38 46 54 65 70 66 64 83 88 91 94 90 86 86 88 97
13 14 14 14 16 17 18 21 19 21 23 18 15 12 11 9 8 12 18 30 58 54 51 51 58 74 86 85 96 91 92 88 80 72 70 77 90 100 98 94 92 90 91 95
15 14 14 14 15 17 18 19 21 22 22 24 21 17 14 12 11 9 14 19 32 48 55 54 53 62 69 74 86 98 98 100 100 100 96 90 95 99 98 100 100 98 100 100
18 15 14 14 15 17 19 21 22 22 23 25 26 24 20 16 14 12 9 12 22 34 47 57 64 74 79 84 90 90 88 84 94 96 92 93 100 100 100 100 100 100 100 100
20 17 15 15 16 17 19 21 22 24 25 26 27 28 28 22 17 15 12 10 13 21 32 43 54 64 66 62 59 57 64 79 86 93 97 100 100 100 100 100 99 100 100 100
21 19 17 16 17 19 20 22 24 27 29 29 29 30 33 31 24 20 18 16 13 14 22 33 49 62 66 65 57 54 52 61 61 58 63 69 92 95 99 97 100 100 100 100
22 21 18 18 18 21 23 23 26 29 31 32 32 33 35 37 34 29 26 25 23 18 21 40 51 58 64 60 53 50 61 78 83 81 86 85 85 83 100 100 97 100 99 100
24 25 20 21 21 22 25 24 27 31 31 34 35 36 37 39 40 37 34 30 22 18 13 24 40 55 49 54 83 83 85 90 100 100 100 100 100 100 98 100 100 100 100 100
26 28 28 26 25 23 25 25 28 31 32 35 37 39 40 42 44 43 41 38 38 36 29 20 14 17 32 60 80 80 75 79 75 72 82 94 90 93 89 100 100 100 100 100
29 31 34 35 32 26 26 27 29 30 31 35 41 42 44 46 48 48 44 42 42 41 41 41 35 27 19 19 36 60 79 92 98 87 74 90 98 95 86 97 100 100 100 100
33 35 35 36 36 30 28 29 32 31 31 36 42 45 48 50 52 50 46 42 40 41 43 45 46 44 36 21 19 18 23 48 87 100 100 100 100 100 100 100 100 100 100 100
37 38 37 37 38 33 30 33 35 36 36 40 44 49 51 54 54 52 46 40 40 39 39 40 37 36 39 29 22 20 20 20 21 50 94 100 100 100 99 99 100 100 100 100
38 39 38 38 40 40 38 37 37 38 40 44 48 51 54 56 56 52 45 38 34 30 28 23 22 32 33 29 24 21 20 21 20 22 32 69 99 100 100 100 100 100 100 100
40 40 40 42 42 40 40 38 38 42 46 48 49 53 57 59 58 52 44 36 30 25 22 17 16 18 18 18 20 20 22 22 22 21 20 23 36 74 98 100 100 100 100 100
43 43 46 46 43 41 41 42 46 50 55 54 54 57 60 60 58 51 42 36 29 24 16 11 11 12 14 16 21 27 26 29 32 41 41 35 29 34 59 100 99 96 100 100
50 52 53 53 49 46 47 48 52 55 57 56 56 59 60 62 57 50 43 33 29 21 12 10 10 10 12 18 31 37 35 49 72 99 100 94 71 68 56 61 100 95 100 100
59 59 60 59 55 50 51 52 55 57 57 55 58 62 61 60 55 49 40 32 25 14 9 10 13 13 15 26 56 60 68 81 96 100 100 100 95 100 100 97 99 100 100 100
68 65 62 62 58 54 54 53 58 61 60 59 63 64 61 59 53 47 36 30 18 9 8 10 14 19 18 20 42 66 72 85 96 100 100 100 100 100 100 100 100 100 100 100
71 67 64 65 62 58 59 61 63 65 63 61 65 64 60 55 51 41 32 22 10 8 9 9 9 9 12 20 21 31 57 66 77 97 100 99 100 100 100 100 100 100 100 100

GFSNGP_500_rhum_117.txt.gz
RH
11 13 12 11 9 9 21 38 44 46 74 96 78 67 58 68 58 43 37 60 62 69 88 92 89 95 97 97 97 92 86 90 94 97 95 94 96 96 95 97 92 84 98 96
11 11 12 13 12 11 10 11 12 17 42 59 64 63 55 46 50 71 80 55 67 77 76 70 88 95 92 95 100 97 87 97 92 98 97 98 96 94 97 99 98 97 95 94
10 11 11 13 14 12 11 11 10 9 8 12 32 49 61 59 56 53 59 80 81 67 78 83 75 83 85 93 84 88 86 85 97 96 97 98 99 98 98 99 97 96 98 99
10 12 11 12 13 13 12 11 10 9 9 8 8 12 29 40 45 43 44 52 56 69 77 84 90 87 83 93 96 96 91 93 88 85 95 98 98 99 99 98 99 97 96 97
9 11 13 12 12 13 11 12 12 11 11 9 8 8 7 14 32 39 40 43 45 50 55 65 75 88 88 81 92 100 96 96 100 96 99 100 97 96 97 97 97 96 97 95
8 10 12 13 13 14 13 13 13 13 13 12 10 9 7 8 10 23 36 37 43 51 46 55 65 67 68 73 80 87 85 89 93 87 89 94 98 99 98 100 100 97 98 97
8 9 10 11 13 14 14 15 16 15 15 15 13 12 10 8 7 8 12 28 38 39 42 47 54 58 64 66 64 68 70 76 80 84 85 90 93 94 90 90 96 93 91 92
9 9 10 11 13 15 16 17 17 17 17 17 17 15 14 12 11 8 7 9 20 30 32 35 51 57 56 55 55 56 59 64 65 68 72 70 72 81 82 80 80 79 81 85
9 9 9 10 12 14 16 18 19 20 20 20 20 19 17 16 16 12 10 8 8 16 36 44 48 47 43 49 52 57 64 50 42 53 61 60 71 78 79 82 89 99 95 99
12 10 10 11 11 12 14 17 19 20 22 21 22 22 21 20 19 17 16 14 11 9 11 24 38 44 56 56 52 54 52 46 43 34 35 43 57 69 72 72 77 87 95 100
15 15 12 11 11 12 14 15 15 19 20 23 23 22 22 23 23 21 19 18 16 13 10 12 16 27 36 39 42 48 66 80 78 83 81 76 75 72 70 72 74 88 100 100
15 18 16 13 13 13 14 16 15 16 19 22 24 25 25 26 26 25 22 22 18 13 10 10 12 22 34 45 50 63 69 70 75 78 82 90 88 89 89 96 95 94 100 100
17 17 20 16 15 14 15 16 17 17 18 21 24 27 25 27 30 31 28 24 23 20 15 14 13 13 15 24 38 50 62 69 67 68 77 94 100 100 100 100 100 100 100 100
20 18 22 19 17 17 17 18 18 19 18 21 23 26 29 31 32 33 34 31 26 24 22 21 21 20 20 19 23 38 58 67 64 57 56 56 60 72 85 94 99 100 99 99
25 20 22 23 20 20 20 20 20 21 21 21 24 28 33 34 35 35 38 37 35 30 28 27 27 27 24 16 18 36 60 65 60 54 52 56 75 89 87 79 80 100 100 100
27 24 23 26 26 25 25 24 24 23 24 23 25 30 32 36 41 40 41 43 41 37 33 32 32 34 40 40 30 21 38 63 78 94 88 87 88 100 100 100 98 100 100 100
30 28 26 28 30 34 33 31 28 26 26 27 27 29 33 33 39 46 46 46 46 43 39 35 33 33 41 48 49 40 24 20 30 68 84 89 85 83 87 93 100 100 100 100
33 30 31 32 35 35 35 34 32 29 29 30 30 31 33 36 38 44 46 48 49 47 42 38 35 33 33 33 40 49 41 26 21 20 24 54 91 100 94 84 82 96 100 98
37 34 35 37 36 36 35 35 36 35 35 34 31 34 39 42 43 48 50 51 52 49 45 41 35 30 27 26 26 31 38 36 31 25 22 22 24 57 100 100 100 100 100 100
42 39 40 40 39 38 37 39 39 37 36 36 36 40 44 45 47 51 54 54 53 49 47 41 34 30 25 20 20 21 22 22 21 21 21 21 22 25 38 72 100 100 100 100
44 46 45 42 42 41 41 42 40 40 40 40 42 44 49 53 53 53 58 56 54 51 47 39 33 28 18 14 13 12 12 12 12 13 14 17 20 20 25 33 68 100 100 100
50 53 54 48 46 46 46 47 46 44 43 46 51 54 55 56 57 54 56 58 55 51 44 36 32 20 13 11 10 11 11 11 13 16 19 24 26 25 23 27 31 39 94 100
52 56 59 54 52 52 52 54 54 51 50 53 57 63 62 58 60 58 55 56 54 50 41 36 26 13 9 9 10 13 13 15 18 23 27 30 38 49 50 44 39 32 26 53
59 58 63 60 58 61 62 62 60 59 56 58 65 67 64 61 61 61 62 58 52 46 39 32 16 8 8 9 11 14 17 18 26 39 44 60 50 64 89 84 68 56 42 28
70 70 70 65 65 68 68 67 66 66 65 70 74 72 69 68 64 62 61 56 52 42 35 19 8 7 8 10 10 10 13 17 21 36 68 70 97 100 100 96 83 79 67 94
81 87 77 73 75 74 75 77 75 74 74 75 75 75 75 74 70 65 60 55 46 39 22 8 6 7 11 20 24 24 24 19 17 20 35 70 88 100 100 100 100 95 99 100
91 95 87 84 84 84 86 86 84 82 81 82 84 82 79 75 68 63 57 50 41 27 9 6 7 10 17 22 26 29 30 30 30 23 20 28 64 87 100 100 100 100 100 100

GFSNGP_500_rhum_123.txt.gz
RH
10 10 10 10 9 9 8 8 7 7 7 11 16 19 18 19 22 25 22 23 30 80 82 66 54 70 59 72 64 65 67 62 76 95 92 96 96 97 97 96 96 97 95 92
10 11 11 11 12 11 10 9 8 7 7 6 6 8 14 20 25 28 27 20 20 22 44 60 63 65 77 68 63 55 56 61 65 86 93 79 91 97 95 97 98 97 98 97
10 11 11 11 12 12 12 11 10 8 7 6 6 6 6 8 14 19 20 21 20 17 19 30 54 54 55 55 56 57 54 51 49 53 62 90 91 91 94 95 96 96 97 97
9 10 11 11 12 12 12 12 11 10 8 8 7 6 6 5 4 5 8 13 19 23 20 18 21 38 47 42 40 42 45 52 52 54 64 76 62 74 87 86 94 94 94 98
9 9 10 11 12 12 11 10 12 11 10 9 9 8 8 8 7 5 5 4 5 8 16 22 20 17 19 27 36 38 36 38 46 53 58 59 64 72 79 71 65 74 83 84
8 9 10 10 11 13 12 11 10 9 10 10 10 9 9 10 10 9 8 8 7 5 4 4 9 13 14 14 14 14 20 26 32 43 48 60 70 75 74 75 80 93 100 98
8 8 9 10 11 12 13 12 10 9 10 10 11 10 10 10 9 11 11 11 10 8 7 6 5 5 4 4 4 5 6 9 12 14 17 24 33 43 52 67 79 86 88 91
12 11 9 8 10 11 12 12 12 10 9 10 9 10 9 10 10 10 10 10 13 13 12 11 10 10 10 8 7 7 7 7 7 7 8 15 24 29 38 38 45 48 53 63
13 13 12 10 9 10 12 12 13 12 11 11 9 9 10 11 11 10 10 10 11 10 11 13 15 14 12 12 14 13 11 11 11 9 8 10 19 28 32 34 42 56 68 75
13 13 14 15 13 10 10 12 13 14 14 12 10 9 9 10 10 11 11 12 12 12 12 13 14 14 16 16 17 17 17 16 15 13 12 10 11 21 31 34 36 51 72 76
17 15 16 15 16 16 12 11 13 14 16 16 15 13 12 11 11 11 13 13 14 15 15 15 16 19 21 21 21 22 22 21 20 18 16 15 14 15 16 18 30 43 47 60
24 20 16 17 18 17 18 14 13 15 16 18 18 17 17 16 14 12 12 14 16 18 19 20 20 24 27 29 30 29 27 26 24 22 21 20 21 24 26 25 30 38 52 54
28 26 22 18 19 19 17 20 17 16 17 18 20 21 21 19 19 19 19 19 19 20 21 23 25 29 33 35 36 36 34 32 30 27 26 26 25 28 38 39 30 40 57 61
54 33 30 26 20 22 20 18 21 19 19 20 22 23 23 23 24 21 20 22 24 24 24 26 28 34 38 40 42 42 40 37 34 31 29 28 29 32 40 50 51 38 40 62
65 46 37 35 29 24 25 21 21 23 23 24 24 26 27 27 27 28 26 24 25 28 29 31 33 36 42 46 48 46 46 42 39 36 33 32 33 37 41 47 52 50 46 74
75 60 54 44 39 32 26 29 23 22 26 30 32 34 34 31 30 31 30 29 30 32 36 38 41 46 49 52 53 54 51 47 42 39 36 34 33 33 33 32 30 36 44 43
55 73 79 62 55 47 32 31 31 26 26 32 36 39 37 36 35 34 34 34 35 36 41 42 48 54 56 59 59 58 55 49 44 40 34 28 24 23 21 20 17 16 23 36
49 57 71 77 78 63 50 34 33 31 30 34 37 37 38 38 37 36 36 37 39 42 46 49 56 61 65 68 67 63 57 50 43 34 22 14 12 10 9 10 11 12 15 25
37 61 70 75 81 83 70 56 36 36 33 38 38 37 40 40 40 39 40 41 44 46 49 55 62 68 75 75 70 64 57 48 36 21 11 7 6 6 8 9 11 12 13 18
17 42 63 73 84 86 90 76 43 40 37 39 42 42 42 43 44 47 50 51 53 54 57 62 71 78 83 79 71 63 54 41 23 10 6 6 6 7 9 11 13 13 13 14
12 15 40 65 77 89 96 90 63 43 42 41 44 46 48 48 50 54 58 59 61 63 65 70 80 86 88 80 70 60 48 27 10 6 7 9 10 10 12 12 14 15 14 14
14 10 12 48 72 82 100 96 78 48 48 47 47 50 52 55 58 60 66 68 68 72 75 79 88 93 89 77 66 54 32 11 6 7 10 13 15 16 21 17 14 16 17 19
22 12 10 11 47 78 91 99 87 56 54 56 58 58 59 60 63 67 73 80 79 80 83 88 90 92 85 72 59 37 13 6 6 9 14 19 24 25 28 31 25 20 20 26
29 14 9 10 12 66 90 100 96 77 64 65 67 66 66 67 69 75 80 85 87 90 94 92 94 90 76 64 41 16 6 6 8 12 16 21 27 36 37 36 35 31 23 23
31 19 13 10 10 46 85 97 99 94 77 69 67 70 71 72 74 79 84 90 94 96 92 92 92 79 68 45 19 8 5 6 10 13 14 15 18 23 36 42 40 38 34 26
25 21 16 11 10 21 90 98 100 98 97 86 76 73 76 76 77 82 90 97 98 95 94 95 82 69 48 22 9 5 6 9 11 10 9 8 8 13 23 38 48 45 45 37
18 13 13 13 13 17 87 99 100 100 99 100 98 93 87 87 86 89 98 98 96 94 93 84 70 51 24 11 6 5 8 10 10 10 9 10 13 15 15 23 45 64 55 51

GFSNGP_500_rhum_126.txt.gz
RH
12 12 12 12 11 8 7 8 10 8 7 5 11 19 20 22 27 30 42 36 46 71 65 65 62 57 48 45 59 65 63 58 66 82 94 96 96 96 91 96 97 96 96 97
12 12 11 10 10 10 8 7 7 8 8 8 7 5 6 14 17 18 24 24 24 32 43 51 51 42 39 35 38 50 49 56 51 48 59 64 60 63 80 93 90 96 97 97
11 12 11 10 7 7 9 9 9 8 8 8 7 7 7 5 5 10 14 14 17 19 25 37 45 32 29 30 31 32 38 40 42 39 39 35 38 62 82 82 79 84 97 97
10 11 11 10 8 6 6 6 7 7 8 9 9 8 8 7 6 5 5 8 11 12 15 19 24 37 42 37 37 40 32 32 32 33 37 39 38 43 53 56 72 96 99 95
9 10 11 11 10 8 5 5 5 5 6 6 6 7 8 8 8 7 7 6 4 4 5 8 12 15 19 33 45 38 36 36 33 33 32 34 39 37 34 39 53 52 47 43
8 9 10 11 12 10 8 6 5 6 6 6 6 6 6 7 6 6 6 6 6 6 5 4 4 4 7 9 10 12 16 19 21 24 26 27 28 31 32 32 33 38 59 72
11 10 9 9 11 12 11 9 6 5 6 6 6 6 7 7 8 8 7 7 7 7 6 6 5 5 4 4 4 4 5 4 4 4 4 4 4 5 5 5 7 10 12 14
12 12 12 12 9 11 12 12 11 9 7 6 6 6 7 7 8 8 9 9 9 9 9 8 8 7 7 7 6 7 7 7 6 6 6 6 5 4 4 4 4 4 5 7
18 14 13 13 13 11 10 12 13 12 11 10 8 7 7 7 8 9 10 10 11 12 12 12 11 11 11 10 9 9 9 10 9 9 8 9 9 8 8 8 6 6 6 8
25 22 15 14 14 14 14 11 11 13 14 13 13 11 9 9 9 9 10 11 13 14 14 14 15 16 15 15 14 14 14 14 16 16 15 15 15 14 14 16 15 13 11 14
45 35 24 21 16 16 15 15 15 12 13 15 15 15 15 14 12 11 11 11 13 15 16 17 18 19 19 20 20 20 21 20 21 21 21 23 24 26 24 23 21 18 17 20
56 57 39 30 26 22 18 17 17 17 14 13 15 17 18 18 18 16 16 15 14 14 16 18 20 22 25 27 27 26 26 28 30 32 34 36 36 35 33 31 26 23 22 23
53 55 51 51 40 30 25 19 19 19 18 18 16 16 17 20 21 21 22 21 19 19 18 18 18 23 28 32 35 37 36 37 42 43 44 46 44 41 40 37 33 30 26 26
39 36 41 51 56 58 34 29 22 22 21 19 20 18 19 20 22 24 24 24 25 23 22 21 23 25 30 35 39 43 48 52 52 51 53 56 53 48 43 40 36 33 33 34
21 17 20 34 50 59 59 39 33 24 24 23 21 22 22 24 25 26 29 29 29 28 26 25 26 29 32 36 41 48 56 58 64 64 63 63 58 51 45 37 26 17 18 27
30 26 20 17 32 50 60 66 42 34 27 26 27 24 25 27 30 32 33 33 33 32 30 29 29 33 35 39 45 51 60 68 70 72 70 67 60 51 41 25 12 7 5 6
43 43 36 23 17 24 45 56 68 48 44 34 31 30 26 27 31 34 34 33 33 33 31 30 32 36 39 43 49 56 65 73 72 74 74 68 58 46 29 13 6 5 5 6
28 37 40 31 24 16 19 42 63 76 70 54 34 34 34 31 31 38 36 34 36 37 39 41 44 48 49 53 59 62 70 76 77 78 76 66 53 34 14 7 5 5 8 10
37 42 35 27 23 16 14 30 57 89 93 86 60 46 38 37 34 38 42 40 42 45 50 54 57 60 63 66 69 72 79 81 82 80 74 60 40 17 8 5 6 9 12 14
38 48 47 27 15 11 10 14 32 67 94 98 92 64 46 44 41 40 46 48 47 49 55 60 66 72 76 80 82 86 87 86 87 79 68 48 21 8 5 6 10 14 19 21
36 42 48 48 31 12 10 9 13 33 66 94 98 93 61 49 50 46 46 51 54 54 57 62 68 74 81 88 91 94 88 90 85 72 56 28 11 6 6 9 13 17 24 29
37 46 50 50 36 23 17 9 9 16 54 80 97 97 93 60 55 55 54 53 57 60 63 67 68 70 82 93 98 97 90 92 79 62 34 14 6 5 8 10 12 14 20 33
33 33 39 48 47 41 30 14 9 9 12 55 69 98 98 82 63 64 64 64 66 71 74 75 71 75 89 99 99 94 93 86 67 40 18 8 5 7 8 9 9 9 12 21
35 33 34 41 49 44 41 34 18 14 10 11 68 81 99 97 92 80 79 79 80 81 83 82 81 89 98 100 97 92 91 72 47 20 8 4 5 7 11 13 12 10 8 11
39 41 37 34 35 40 41 35 29 21 16 11 35 95 100 100 98 99 97 94 91 89 89 93 97 99 100 98 89 91 76 51 25 9 4 4 7 12 15 14 13 14 15 12
48 43 40 35 33 40 41 38 30 20 14 12 16 72 100 100 99 98 99 100 98 95 98 98 99 100 98 89 92 78 50 26 10 4 4 6 11 13 12 12 17 22 24 24
52 48 44 40 39 41 40 29 20 19 14 12 11 32 92 100 100 100 100 98 99 100 99 100 100 100 92 93 78 46 24 10 4 4 7 10 11 10 12 18 18 16 16 21

GFSNGP_500_rhum_129.txt.gz
RH
13 12 12 11 10 9 9 9 9 10 10 7 4 5 12 18 17 29 47 55 60 59 50 56 63 57 63 71 68 68 68 70 84 80 86 98 96 96 96 96 96 96 93 90
10 10 10 9 7 7 8 8 9 10 10 10 9 6 4 5 12 15 19 43 51 43 53 48 46 47 48 47 47 53 59 56 55 55 53 65 85 87 88 93 82 66 86 85
10 9 9 9 7 6 5 6 6 8 9 10 9 9 9 6 4 7 10 14 19 30 31 35 37 35 33 35 37 38 48 51 43 43 50 42 40 43 48 45 71 73 72 73
9 10 9 8 8 7 5 5 5 6 6 7 8 7 7 8 8 6 4 3 5 9 15 22 26 35 38 35 38 37 34 35 37 35 34 34 33 32 32 32 33 34 33 35
11 9 10 11 8 8 6 5 5 6 6 7 7 7 7 6 6 6 7 7 5 4 4 5 7 12 22 36 39 38 38 37 34 36 35 31 28 25 22 24 25 24 25 26
12 12 10 9 11 10 8 7 6 5 6 6 7 8 8 8 8 7 7 6 6 6 5 5 4 4 5 7 12 19 23 20 14 12 12 6 4 3 3 4 5 4 4 4
20 16 12 13 11 10 11 9 8 6 5 5 6 7 8 9 9 9 8 9 8 8 7 7 6 6 6 6 5 5 4 4 5 5 4 4 4 5 5 4 6 6 5 5
31 23 19 16 14 13 11 11 11 9 8 7 6 6 7 8 8 9 10 10 10 10 9 9 9 8 8 7 7 7 6 6 7 7 7 7 8 8 7 7 7 7 7 7
42 40 32 24 19 14 14 13 10 12 13 11 10 8 8 7 7 8 10 11 10 11 12 12 13 13 12 13 13 13 13 13 13 12 12 12 13 13 12 12 12 11 11 11
36 54 47 39 35 24 16 15 15 13 11 14 14 13 13 12 10 10 10 10 11 14 13 12 13 14 15 16 17 18 18 19 19 19 19 20 20 19 19 19 19 18 17 16
15 29 34 40 45 45 32 23 17 16 16 15 12 15 15 14 15 16 14 13 12 12 14 16 18 19 20 21 21 22 23 23 24 24 24 25 26 27 28 28 28 27 25 25
12 11 12 26 42 51 54 42 27 25 18 17 17 16 14 16 16 16 18 19 19 18 17 16 16 17 18 20 25 29 30 31 33 35 38 39 37 35 34 37 40 40 36 34
21 15 13 13 13 21 44 58 58 51 29 22 19 19 18 17 16 17 19 20 22 23 23 23 22 20 20 20 24 28 31 33 34 37 43 46 48 50 55 54 51 48 44 42
31 30 24 19 18 16 15 22 50 58 58 37 28 20 21 20 20 18 18 20 22 24 26 27 27 26 25 24 24 26 30 32 34 38 44 48 53 54 55 58 63 66 58 51
35 28 26 26 28 31 30 28 20 25 54 58 45 32 27 24 22 22 22 21 23 26 28 32 33 32 31 30 29 30 32 34 39 43 47 53 58 62 59 60 62 63 57 49
37 28 26 26 26 30 27 28 37 21 17 36 63 62 40 30 27 26 24 24 26 28 32 36 38 36 34 34 34 36 42 47 52 54 57 62 68 69 67 66 68 65 55 43
43 36 23 26 31 24 22 28 35 32 23 16 30 65 69 43 40 32 30 29 27 30 32 38 38 36 36 39 43 48 52 58 60 64 70 72 77 76 72 69 72 65 49 29
44 26 20 21 29 27 21 25 26 23 20 14 14 37 65 87 72 52 37 36 36 32 33 38 41 42 43 46 48 51 55 60 63 68 73 79 79 77 74 73 71 57 34 14
48 26 20 27 34 34 32 29 30 20 13 11 10 20 70 90 97 91 78 60 42 40 38 39 43 47 50 53 56 54 54 55 59 67 79 85 81 78 74 75 65 42 18 7
46 31 20 28 43 42 40 36 35 33 22 11 9 11 52 99 94 96 98 95 69 49 46 47 47 49 53 57 60 59 59 59 66 74 88 88 83 78 77 71 50 22 7 4
52 42 27 32 42 39 30 37 42 39 24 17 10 9 15 57 88 100 99 98 95 77 57 54 56 56 57 60 62 67 69 72 80 87 94 90 83 80 74 55 26 8 4 5
47 35 33 40 41 36 32 32 35 40 38 36 16 9 9 20 45 78 100 100 99 98 97 89 66 66 69 72 77 83 85 88 92 96 96 90 84 78 57 29 9 4 6 9
53 47 42 42 43 39 33 30 26 29 42 40 38 22 14 13 12 20 68 97 100 99 98 99 98 93 92 96 97 98 98 98 98 98 94 90 81 59 30 10 5 5 8 10
56 50 43 48 53 45 39 36 37 34 36 38 40 31 20 22 22 17 20 46 98 100 99 99 98 98 98 98 99 99 99 98 98 97 96 85 55 23 8 5 6 8 10 11
48 47 48 52 53 46 43 40 42 42 37 37 41 38 34 29 22 17 16 29 60 99 100 100 100 99 100 100 100 98 99 100 98 98 83 49 18 6 4 5 7 9 10 10
48 43 46 59 62 55 48 48 47 48 46 43 42 39 34 27 22 16 12 12 30 68 99 100 100 100 100 100 100 100 100 99 98 78 37 11 5 4 5 6 8 9 8 8
61 61 62 66 61 53 47 43 41 42 44 45 45 46 42 39 33 26 17 13 13 32 91 100 100 100 100 100 100 100 100 97 67 21 7 4 5 5 6 8 8 8 6 5

GFSNGP_500_rhum_132.txt.gz
RH
10 10 7 5 4 6 7 8 8 9 10 9 6 4 7 12 16 22 39 49 57 57 58 68 79 92 87 81 86 99 100 99 98 98 98 88 75 96 98 99 97 97 96 95
9 8 8 6 5 4 5 6 6 7 8 9 8 7 4 6 11 16 19 30 45 48 48 51 57 58 60 67 60 62 64 73 80 89 85 92 100 100 100 98 97 96 96 95
9 8 8 9 7 5 5 5 6 6 7 8 8 8 8 4 4 9 14 14 23 40 42 41 47 54 51 48 56 60 61 59 54 53 57 72 62 64 77 50 41 29 35 31
12 10 8 8 9 8 5 5 5 6 7 7 8 8 8 8 7 5 3 4 7 11 19 30 31 32 35 47 44 45 50 56 58 53 43 38 39 36 30 26 26 27 22 24
20 17 12 10 8 9 9 7 5 6 6 7 8 8 9 8 8 8 7 6 5 4 4 5 9 13 14 16 25 42 41 41 35 34 34 30 25 21 16 13 9 7 7 8
32 28 21 17 12 10 9 10 9 6 6 6 8 8 8 9 9 8 8 9 8 7 6 6 6 6 5 5 6 10 19 27 22 15 14 9 6 4 5 5 5 5 5 4
36 36 33 28 20 14 13 11 10 10 8 6 6 7 8 9 9 10 9 9 9 10 10 10 9 8 7 8 8 8 8 6 4 5 5 6 6 6 6 6 6 6 7 7
23 30 38 39 36 27 20 13 12 10 10 10 9 7 6 7 7 9 10 10 11 11 11 11 11 11 11 10 10 10 10 10 10 10 10 10 11 12 12 12 12 12 12 11
14 16 14 15 33 43 41 28 19 13 13 10 11 12 11 8 7 7 8 10 11 11 12 13 13 14 14 14 15 14 15 15 15 16 16 17 18 18 18 18 19 20 20 20
14 18 15 11 11 16 36 49 46 34 19 15 14 12 12 14 14 12 10 9 8 9 12 13 13 14 15 15 16 17 18 18 19 20 20 21 22 22 22 21 21 21 22 23
18 20 14 15 12 12 12 20 37 49 50 33 21 17 16 14 13 16 16 15 15 13 10 10 13 16 18 19 20 20 20 21 21 22 22 21 21 23 24 24 25 25 27 30
22 24 21 23 21 17 14 15 14 14 35 56 58 36 24 18 17 15 14 17 18 18 19 19 17 15 13 14 16 17 18 23 26 27 27 27 27 28 29 30 31 32 33 35
32 29 22 29 28 26 18 23 24 22 17 18 37 56 56 45 23 19 19 17 16 18 20 21 22 23 23 23 22 20 19 19 21 25 27 28 30 33 33 32 35 41 44 48
40 32 23 34 20 19 22 20 21 30 36 37 33 23 35 58 58 32 22 20 21 20 18 19 21 23 24 26 27 29 28 27 26 25 25 26 30 33 40 44 47 49 55 57
65 48 42 42 36 29 19 16 20 25 22 20 27 30 19 25 54 68 46 32 26 24 23 23 21 22 24 27 31 36 36 34 32 32 32 35 42 47 49 51 55 58 63 65
73 72 65 48 27 37 30 16 19 26 23 19 24 32 31 22 18 36 72 68 40 29 27 27 25 26 26 29 34 39 39 37 36 37 41 47 50 51 54 54 55 56 59 67
62 62 42 31 27 33 28 21 24 29 25 22 29 28 24 22 18 22 50 80 85 71 44 34 32 32 30 31 33 37 42 41 43 46 48 48 48 48 49 51 56 61 68 72
63 71 68 37 32 38 29 22 24 34 33 29 23 24 19 14 11 11 22 44 77 100 98 78 45 39 39 38 37 37 41 50 52 53 54 55 54 54 56 62 64 69 79 80
72 44 39 33 31 46 32 21 27 31 35 37 30 25 26 19 13 11 10 20 80 100 97 100 98 90 62 47 47 47 48 50 54 58 60 62 62 64 70 76 79 85 83 77
52 40 39 38 35 47 41 34 23 28 37 36 30 29 31 34 24 13 9 13 49 81 84 100 100 100 99 98 85 65 59 60 61 63 65 69 74 81 88 91 90 88 82 79
65 48 46 46 43 38 52 51 31 35 39 35 29 29 35 36 33 27 18 10 12 19 53 75 92 97 99 100 98 99 98 93 83 76 77 81 93 98 96 92 87 85 86 81
74 63 54 45 49 51 46 43 40 36 41 39 33 29 30 34 34 35 31 16 12 13 13 16 52 85 98 100 99 100 100 100 100 99 97 99 99 97 94 88 86 89 83 55
83 69 59 58 53 48 52 53 46 41 44 42 39 36 33 32 35 36 39 30 22 21 21 20 19 33 75 95 100 100 99 100 100 100 100 100 98 95 94 91 91 82 48 13
85 76 66 71 70 68 72 65 57 55 53 46 43 46 46 44 40 35 33 36 34 28 24 22 19 17 19 40 84 100 100 100 100 100 100 100 100 98 94 95 75 33 9 6
92 76 65 69 73 77 70 56 53 57 60 59 51 48 48 47 46 42 41 39 37 35 27 20 15 13 12 14 38 72 100 100 100 100 100 100 98 97 92 62 17 7 6 5
93 80 77 85 89 78 64 53 50 53 57 62 62 56 52 49 49 49 48 46 44 41 38 35 30 24 17 14 18 78 100 100 100 100 100 100 99 86 34 8 5 5 5 6
99 90 90 95 90 76 68 62 64 67 65 64 67 64 60 57 55 54 52 50 50 48 44 39 32 25 18 15 27 90 100 100 100 100 100 98 64 14 5 5 6 7 7 6

GFSNGP_500_rhum_135.txt.gz
RH
8 9 9 7 6 5 6 7 7 8 8 8 7 4 6 11 19 28 35 38 53 55 55 66 71 82 83 87 97 96 98 96 84 98 99 99 100 100 95 98 89 86 95 96
11 10 8 10 8 6 5 6 7 8 9 8 8 7 3 5 10 17 22 28 36 48 50 53 61 64 72 80 72 75 91 97 98 98 99 99 100 100 100 98 94 97 96 97
24 16 11 9 9 10 7 6 6 7 8 9 9 8 7 5 4 6 12 17 21 28 40 45 46 54 53 53 60 64 67 66 84 93 97 97 98 100 99 98 97 96 95 93
32 29 23 15 11 9 9 10 7 6 7 8 9 9 9 8 7 5 4 4 6 10 15 22 29 34 35 39 45 46 52 62 63 57 51 58 78 63 44 44 45 36 23 20
21 31 33 31 21 15 11 9 9 9 6 6 8 9 9 9 9 9 8 7 6 5 4 4 5 10 22 25 24 27 43 43 42 39 34 33 32 30 28 25 20 19 18 12
10 13 20 32 34 29 19 13 12 10 10 8 5 6 8 9 9 9 9 10 10 9 9 8 7 8 7 6 5 6 11 26 37 29 20 13 15 15 12 8 6 5 5 5
12 12 13 16 20 33 36 28 19 13 11 10 11 9 7 6 8 9 10 10 10 11 11 11 11 12 12 11 9 8 11 11 12 5 6 6 6 7 8 8 9 10 11 11
16 14 13 12 13 15 22 39 40 30 18 13 12 10 10 10 8 7 7 8 11 12 12 12 13 13 14 15 16 15 13 12 12 12 12 13 14 16 17 18 17 16 17 16
28 20 14 12 14 11 10 11 23 40 44 40 27 14 13 10 11 11 9 8 8 8 10 10 13 14 14 14 15 16 16 16 15 15 16 16 18 18 18 18 19 20 20 19
40 30 18 15 16 13 12 11 12 16 24 38 49 51 33 16 15 13 11 12 12 12 10 10 10 12 15 15 16 16 17 17 17 18 18 18 17 16 17 19 19 19 20 20
56 46 28 20 19 20 20 19 16 13 13 14 21 41 53 48 35 23 16 15 12 13 14 14 14 12 11 12 15 17 19 20 21 22 22 22 22 22 20 19 18 18 18 19
42 42 35 26 24 23 19 21 24 22 20 22 23 18 18 34 56 61 46 25 18 17 14 14 15 16 16 17 17 16 14 13 14 15 15 17 20 24 25 26 25 24 24 24
54 46 42 39 38 29 20 24 25 22 23 21 23 30 30 28 23 24 50 64 54 26 20 19 16 15 16 17 18 20 22 22 22 22 23 22 21 19 16 18 18 19 22 26
59 53 52 56 43 33 31 37 25 19 17 17 16 21 22 25 30 30 23 26 58 63 40 26 23 22 19 18 18 19 21 22 24 26 28 30 30 30 28 26 25 26 29 38
68 56 49 59 52 43 40 41 38 32 26 17 17 20 24 24 30 31 27 22 23 54 71 63 47 31 26 24 24 22 22 22 23 26 30 35 37 36 34 34 35 36 42 49
88 67 59 59 73 74 71 64 58 40 34 28 18 20 16 23 23 26 34 30 23 19 19 46 76 77 66 36 32 30 29 28 28 29 33 37 42 44 44 45 48 52 54 53
76 75 77 53 60 65 66 52 44 41 39 30 20 20 21 28 27 24 24 23 20 17 16 23 40 72 89 88 93 60 42 39 37 36 37 39 43 50 54 56 58 61 63 64
85 74 70 64 70 62 62 47 53 51 44 32 24 25 21 19 31 31 27 25 21 15 12 11 16 24 59 95 100 100 98 96 73 55 48 48 48 49 53 58 62 65 67 68
78 75 62 59 70 72 72 73 70 66 37 34 34 25 24 24 29 35 30 25 25 32 22 16 9 11 26 47 87 96 97 97 98 100 99 94 85 76 78 80 77 78 81 88
73 75 68 71 77 79 72 70 60 38 37 42 36 34 31 26 35 37 31 25 23 30 28 24 20 12 15 21 47 62 73 90 92 92 89 93 98 100 100 100 99 99 99 99
66 82 82 84 95 80 53 50 55 60 54 42 43 51 41 24 33 37 32 28 34 33 40 37 29 19 11 14 24 28 32 43 62 79 83 91 99 97 99 100 100 100 98 93
81 83 80 82 91 97 94 76 67 85 74 56 45 42 41 39 33 36 36 33 35 35 41 43 41 36 22 19 22 21 20 20 24 26 38 58 81 92 94 98 87 84 84 86
98 89 84 80 92 98 98 98 84 64 52 53 58 58 54 48 49 47 41 38 37 40 39 39 38 37 35 28 25 23 23 23 22 18 16 15 18 33 52 65 78 82 86 89
100 94 100 95 93 100 100 97 97 82 76 73 65 61 60 57 54 50 46 44 47 47 46 44 42 40 38 35 31 25 20 18 18 19 18 16 19 22 56 82 87 92 92 90
100 100 100 100 100 99 100 98 99 98 90 84 70 72 69 63 67 64 63 62 57 53 53 52 50 47 44 40 35 32 37 36 31 25 22 21 33 66 87 93 94 95 89 79
95 100 100 100 100 100 99 98 98 94 87 86 82 78 70 66 66 68 70 72 67 62 58 57 58 58 56 52 48 47 44 38 31 28 23 40 79 94 100 100 95 82 35 7
100 100 100 100 100 100 100 100 96 98 100 100 95 81 77 83 86 82 81 81 79 73 67 64 63 63 60 56 53 49 39 35 31 31 65 89 99 100 100 81 34 8 7 6

GFSNGP_500_rhum_138.txt.gz
RH
27 20 12 9 10 10 6 6 7 8 9 9 7 4 3 17 25 28 35 33 47 56 54 49 56 70 83 84 89 95 98 95 100 98 96 95 96 95 94 98 86 86 82 68
32 30 26 16 12 9 10 9 6 6 8 9 9 8 5 5 8 16 19 23 23 34 47 46 46 46 60 61 66 74 86 98 99 98 98 95 99 74 78 98 91 92 97 97
17 20 27 30 26 17 11 9 10 8 6 8 9 9 9 7 6 4 4 9 14 18 22 25 29 37 39 43 45 48 56 72 96 97 98 99 97 98 99 98 96 97 97 96
11 10 14 23 31 31 26 17 11 10 10 6 6 9 9 9 9 8 8 6 5 5 7 12 14 17 17 17 30 34 36 45 60 89 91 96 97 97 97 97 98 98 96 96
9 11 14 16 16 25 32 30 22 14 12 11 9 6 7 9 10 10 10 9 9 8 7 7 8 8 8 7 6 8 20 34 43 43 41 44 49 70 80 69 76 61 53 35
18 13 12 13 11 13 12 25 33 29 19 13 11 10 9 8 6 9 10 11 11 11 10 10 11 12 12 13 12 7 6 17 30 36 33 25 18 16 20 20 17 16 13 9
29 26 22 18 15 12 12 13 14 31 38 30 18 14 12 10 9 8 7 8 10 11 12 12 13 14 14 15 16 11 7 8 14 21 17 9 6 6 6 6 6 7 7 8
46 44 40 33 22 15 12 10 10 10 26 41 40 34 21 16 14 11 11 10 7 8 9 10 11 12 14 15 16 18 16 11 9 8 8 9 9 10 12 13 14 16 18 19
56 62 58 48 35 18 15 12 12 11 11 17 25 33 44 48 46 22 15 13 12 12 12 11 10 10 10 13 15 16 17 18 19 20 20 20 20 20 20 20 21 21 21 22
61 92 76 50 49 37 19 19 18 16 14 13 13 14 15 17 27 49 46 27 19 16 13 13 14 15 15 14 12 14 16 17 18 19 20 20 21 21 21 20 22 22 21 21
64 82 76 51 51 40 38 20 23 25 22 20 18 18 18 21 22 20 29 51 57 46 27 19 16 15 16 17 17 17 16 15 14 16 18 20 21 21 21 22 23 24 25 26
76 100 60 64 54 43 35 24 25 26 28 26 27 23 18 26 24 25 25 27 25 51 64 63 42 23 19 16 17 18 19 20 20 21 22 22 21 20 19 19 18 18 18 18
86 97 68 68 60 57 36 33 37 28 26 24 26 23 15 15 23 29 25 22 24 28 23 29 58 68 70 27 22 18 18 19 20 22 23 24 24 25 25 26 27 28 27 26
92 94 70 73 44 59 42 41 47 32 36 34 26 21 21 16 18 18 25 25 20 20 25 24 20 25 57 59 58 45 27 24 21 21 22 23 23 24 25 26 28 32 36 36
93 90 69 73 86 73 75 64 60 47 46 36 33 38 39 30 23 17 16 24 26 24 23 23 31 27 21 23 49 69 57 78 58 31 29 27 27 26 26 27 28 31 36 41
88 92 98 95 93 96 93 81 91 80 81 69 58 62 62 45 33 25 19 17 19 25 24 25 25 21 19 16 16 19 39 77 75 85 92 78 46 37 36 35 35 36 37 40
78 85 96 92 94 97 97 94 95 78 67 72 70 69 65 53 39 29 22 22 23 28 28 29 26 22 18 15 12 13 15 19 35 70 98 94 90 100 100 99 92 78 70 70
82 78 85 83 85 87 99 93 78 69 66 62 60 57 49 49 44 37 28 26 26 28 37 37 32 30 29 28 23 14 10 14 20 37 56 66 83 86 100 97 92 86 86 89
86 79 83 80 76 91 99 95 85 67 65 70 72 72 74 73 53 43 46 30 26 28 40 37 34 34 32 30 25 26 23 14 16 20 23 32 41 43 43 53 73 85 91 96
98 91 89 97 89 93 99 95 86 74 76 89 88 92 95 88 56 42 44 44 43 38 34 38 35 33 29 29 35 36 32 23 15 14 18 18 19 21 24 28 30 30 26 22
99 100 95 91 92 100 100 94 91 88 92 96 94 78 64 56 52 60 54 51 55 46 37 40 39 36 32 32 38 43 42 38 28 16 19 24 24 21 23 22 20 17 15 14
95 94 98 100 98 100 100 100 100 100 98 98 97 87 80 80 81 78 75 68 64 59 54 49 43 39 36 40 43 41 39 37 35 31 24 22 23 24 22 22 27 31 29 27
100 100 100 100 100 100 100 100 96 95 99 100 100 100 98 98 95 94 81 73 67 63 61 56 49 46 46 47 46 48 47 44 42 38 33 30 28 25 33 40 39 35 33 31
100 100 100 100 100 100 100 100 100 97 97 100 100 100 100 100 98 99 96 88 81 76 71 66 64 60 56 54 55 54 53 52 48 44 40 38 37 42 47 44 38 38 32 33
100 100 100 100 100 100 100 100 98 98 100 100 100 100 100 99 99 99 100 97 96 87 79 74 74 82 78 74 70 65 62 63 64 63 60 56 53 51 48 42 40 38 48 78
68 66 78 100 99 74 71 94 100 100 100 100 100 100 100 100 100 99 98 100 97 90 84 86 87 87 91 84 78 74 72 72 74 79 72 60 52 46 43 41 41 72 94 86
94 77 89 75 85 80 73 96 100 100 99 100 99 100 100 100 100 100 100 100 100 100 100 99 99 100 99 98 99 99 98 99 96 87 84 62 45 44 52 74 93 95 48 16

GFSNGP_500_rhum_141.txt.gz
RH
9 16 27 31 26 18 12 10 11 9 7 9 8 6 11 13 17 21 25 30 35 33 36 47 50 46 44 52 57 61 70 75 68 89 82 93 88 96 96 98 98 97 86 72
11 10 12 23 30 28 29 18 13 11 10 7 9 9 8 6 4 4 5 17 18 20 22 25 32 29 27 31 34 37 40 56 82 80 80 98 94 100 83 91 92 79 80 73
15 10 11 13 13 16 25 30 30 17 12 11 6 8 9 9 9 6 7 5 5 7 8 14 17 18 18 15 12 11 21 34 47 91 98 96 97 93 82 97 98 95 96 97
25 18 12 11 12 12 11 13 24 32 26 15 12 10 7 8 9 10 9 9 8 7 6 6 6 7 8 8 7 6 6 18 34 50 88 94 90 99 100 100 97 98 95 86
43 32 25 20 16 16 13 12 11 20 33 30 18 14 11 11 8 8 9 10 11 10 9 8 9 10 11 12 11 9 7 7 37 44 53 57 85 96 92 96 89 90 94 95
55 50 41 38 37 29 29 15 12 12 11 25 37 33 18 14 12 12 8 7 9 10 12 12 12 12 14 15 15 14 8 6 32 36 38 33 24 25 25 35 35 30 31 28
65 59 58 58 53 50 44 28 14 13 12 10 17 34 39 31 19 16 13 13 12 9 8 10 11 12 12 13 14 16 15 8 18 33 26 21 14 11 8 10 10 10 9 7
78 72 70 82 65 67 54 47 23 14 12 11 11 11 19 38 42 43 35 23 16 14 14 14 12 11 10 10 12 15 16 17 11 9 8 8 9 11 12 12 12 13 14 15
86 80 91 90 76 59 53 59 44 17 14 12 12 12 12 13 16 17 25 41 49 26 18 17 15 16 18 17 15 12 14 17 18 18 19 20 21 22 22 23 23 24 25 25
91 93 97 92 82 75 72 62 68 53 21 19 20 17 15 14 15 17 17 20 20 35 46 36 37 26 18 16 18 19 18 14 14 17 20 21 22 22 23 24 24 26 28 29
91 93 96 90 92 74 68 72 56 54 42 21 24 26 20 18 15 17 19 19 21 24 24 28 51 59 61 52 27 20 19 20 20 20 18 16 16 17 18 19 20 19 19 20
89 100 92 72 91 96 72 76 74 68 60 33 24 31 26 23 18 18 21 22 25 23 17 20 24 27 33 50 62 70 55 27 21 20 22 23 22 22 23 24 24 25 26 26
93 100 94 83 78 96 87 58 69 83 88 75 45 35 38 27 22 22 21 17 21 23 19 21 18 16 18 23 22 27 57 58 71 76 34 24 22 23 25 25 25 25 26 26
95 98 73 92 72 86 100 88 77 80 89 86 63 50 43 42 39 34 32 26 24 21 22 22 20 21 21 23 26 28 24 25 48 65 51 68 92 68 44 34 31 30 28 27
98 95 61 67 79 94 99 96 87 85 84 84 67 65 67 48 42 47 46 46 39 33 28 21 20 20 20 24 23 20 21 18 16 18 29 58 72 67 68 82 97 98 90 69
84 80 85 71 77 77 84 94 94 98 95 97 92 83 77 73 74 72 53 45 58 64 37 31 24 24 20 26 27 24 21 18 15 14 15 17 16 32 48 72 66 78 86 92
71 74 91 72 80 77 80 84 96 96 98 98 98 95 92 85 76 82 88 72 76 72 45 37 28 26 26 26 30 32 27 21 20 23 21 12 11 15 20 28 39 51 46 48
59 68 74 61 76 70 80 100 98 96 97 96 99 97 96 86 75 73 81 85 69 57 48 46 36 32 29 31 36 38 35 28 27 26 21 22 15 15 17 19 20 24 27 24
75 80 96 92 85 83 83 97 98 93 96 92 99 98 92 76 69 72 80 97 91 68 62 52 50 36 31 35 35 38 40 34 28 28 30 34 30 24 19 17 20 22 24 26
82 91 94 75 72 74 76 89 97 95 97 98 96 97 100 90 84 88 100 99 98 96 80 64 51 48 53 50 42 42 39 38 36 34 41 41 40 40 33 24 21 24 25 26
100 82 54 83 100 100 100 100 90 96 100 99 98 96 100 99 100 100 98 98 97 89 77 73 71 65 58 50 50 52 49 46 45 46 42 45 47 42 37 36 34 32 30 29
100 93 98 100 98 100 100 100 100 100 100 100 99 99 100 100 99 100 99 99 93 83 93 100 100 98 90 73 66 62 57 53 52 52 50 51 52 51 49 46 44 41 41 42
100 100 99 100 100 100 100 100 100 100 100 100 100 100 100 100 100 100 99 100 100 99 99 98 98 97 86 76 75 74 70 65 63 62 62 63 62 61 58 55 53 54 55 57
78 93 98 100 100 100 100 100 100 100 100 100 100 100 100 100 100 100 100 100 100 99 99 99 99 100 98 95 100 96 86 84 86 85 83 82 80 76 73 72 70 72 84 92
91 87 87 94 100 100 100 98 100 100 100 100 95 83 94 98 98 100 98 100 100 100 100 100 100 98 98 100 100 98 96 95 94 95 99 100 100 95 92 90 94 99 99 99
86 60 63 68 78 90 91 97 77 97 81 85 100 76 74 89 98 100 100 100 97 98 100 99 97 99 100 100 100 100 100 100 100 100 100 100 100 100 100 100 100 100 100 98
100 100 91 78 47 46 45 55 51 43 62 54 82 87 85 94 99 98 98 97 97 98 100 100 100 100 99 94 89 80 73 58 44 36 38 49 60 71 87 99 100 100 100 100

GFSNGP_500_rhum_144.txt.gz
RH
15 15 11 10 12 11 16 24 31 24 11 7 8 7 6 6 5 5 4 7 18 22 25 22 19 26 33 26 24 23 22 22 36 69 64 77 94 98 95 97 96 93 84 64
40 19 18 12 12 12 12 10 17 28 25 14 9 7 9 9 7 7 6 5 5 8 12 13 13 15 18 15 9 6 6 8 27 42 80 71 78 92 96 97 99 97 60 76
54 52 37 27 24 16 14 14 10 11 15 32 19 13 7 7 9 10 10 9 9 8 6 5 6 7 7 9 9 9 7 7 10 37 68 85 89 91 90 82 92 95 95 94
66 64 56 45 44 37 31 32 19 13 11 17 30 24 15 11 8 7 9 10 11 11 9 9 9 10 12 13 14 14 12 8 7 39 58 81 77 85 97 84 95 96 97 94
71 70 63 70 58 58 58 43 39 37 16 10 10 26 30 29 16 12 10 7 8 10 11 12 12 12 13 14 14 15 15 9 7 38 60 44 59 64 96 98 98 96 98 97
88 86 71 72 69 72 67 76 67 57 33 13 9 10 13 26 37 28 16 13 11 10 8 10 12 12 12 11 11 13 16 12 9 52 52 40 30 24 28 40 53 62 44 54
97 87 78 96 90 74 70 72 70 68 66 41 14 9 10 12 17 27 35 39 34 18 13 12 10 10 10 10 11 11 14 16 19 35 39 24 12 7 8 11 18 14 13 12
81 76 77 90 95 88 73 73 68 77 75 66 26 16 11 11 14 13 13 16 19 28 43 35 18 14 14 14 15 15 14 14 18 15 12 12 11 11 11 10 10 12 12 12
83 71 87 96 86 98 89 67 68 60 76 71 73 46 22 14 13 13 13 13 14 17 19 23 42 41 25 22 18 16 16 17 15 17 20 20 20 20 21 21 21 22 23 24
84 69 97 89 89 88 90 74 79 68 64 62 64 75 74 25 18 18 16 16 14 15 17 18 21 28 32 46 52 51 47 22 17 18 17 16 18 21 23 24 25 25 26 26
72 63 90 75 97 97 93 94 80 81 66 65 75 92 85 61 23 21 22 22 20 20 16 18 16 18 22 21 20 31 52 64 63 40 21 18 20 21 21 21 21 22 22 23
54 65 96 56 84 94 85 78 73 73 65 58 77 89 97 100 42 25 25 27 28 34 31 19 18 17 16 18 16 14 17 22 26 44 60 61 58 31 21 21 23 24 25 26
22 24 42 41 79 98 93 79 69 65 67 59 97 96 96 100 90 46 35 33 33 27 30 29 28 22 18 15 20 20 19 16 17 23 23 27 45 53 55 68 73 52 35 29
12 12 12 36 32 93 95 83 74 61 70 67 78 100 95 98 100 80 56 51 42 34 41 42 40 43 31 21 18 22 22 19 18 16 17 17 15 14 13 14 18 26 30 39
28 27 9 9 13 22 78 89 73 64 76 80 99 100 98 96 100 97 69 63 54 45 55 56 58 67 49 44 26 21 23 22 19 19 18 17 15 12 11 12 13 16 18 17
22 28 24 17 15 28 100 100 86 75 84 83 94 100 97 97 98 100 94 80 68 71 65 60 60 58 52 68 48 28 27 27 28 27 24 21 17 14 14 17 18 13 12 14
15 6 5 3 5 20 51 94 96 91 86 73 77 84 92 98 98 99 98 96 86 96 94 90 98 93 85 78 53 36 31 31 33 36 35 30 24 19 20 23 18 14 14 16
13 14 22 24 30 41 90 100 100 100 100 84 75 82 98 100 99 98 97 98 98 98 98 95 95 95 86 67 56 47 40 41 42 41 40 40 36 30 26 26 24 28 30 24
52 55 75 96 86 70 72 81 83 82 90 96 95 97 98 98 98 98 98 98 98 98 96 94 95 100 90 85 85 65 60 52 50 48 50 42 43 43 38 36 37 36 36 36
57 100 94 56 88 97 100 100 100 100 100 100 100 100 98 99 99 98 98 98 97 98 98 100 100 99 96 97 98 90 63 55 55 52 54 54 48 48 49 48 48 47 48 46
67 100 100 96 100 91 100 77 85 100 100 100 100 100 99 100 99 99 98 98 99 98 98 100 100 99 99 99 98 98 90 78 69 62 64 66 71 58 59 57 54 53 52 52
54 94 100 100 79 100 100 100 96 98 100 100 100 99 99 100 100 100 100 99 99 98 98 98 98 97 99 97 95 96 97 98 98 98 99 86 69 65 64 67 66 65 64 64
88 51 90 92 69 96 93 100 100 100 98 100 100 100 100 100 100 100 100 99 99 100 100 100 100 100 99 99 100 99 99 100 100 100 100 98 96 91 99 96 90 86 83 80
99 100 79 88 74 76 100 99 100 100 100 100 100 100 100 100 100 100 99 98 97 99 98 100 100 96 94 98 99 100 99 100 100 100 100 100 100 99 100 100 100 99 99 100
100 100 100 88 77 81 69 65 93 94 100 100 100 96 93 94 89 93 87 86 91 94 96 97 89 91 96 96 98 100 100 100 100 100 100 100 100 100 100 100 100 100 100 100
100 100 100 100 89 77 47 49 63 76 85 98 100 94 73 62 62 66 68 66 62 67 77 80 83 87 92 95 96 97 96 98 100 100 100 100 100 100 100 100 100 100 100 100
100 100 100 87 76 72 56 53 72 57 60 65 60 63 69 58 54 51 45 63 66 51 54 76 86 89 89 91 94 90 76 58 45 38 35 34 36 40 47 67 94 100 100 100